Location: *
(37.9500°N, 27.3666°E)
Time: 16:20:06
(UTC+00:00)

ISS - Visible Passes

Search period start: 27 November 2022 00:00
Search period end: 07 December 2022 00:00
Orbit: 411 x 421 km, 51.6° (Epoch: 27 November)

Date Brightness Start Highest point End Pass type
(mag) Time Alt. Az. Time Alt. Az. Time Alt. Az.
30 Nov -1.3 16:08:43 10° N 16:09:08 10° N 16:09:08 10° N visible
01 Dec -0.8 16:55:18 10° NNW 16:55:23 10° NNW 16:55:23 10° NNW visible
02 Dec -1.9 16:06:52 10° NNW 16:08:50 17° NNE 16:08:50 17° NNE visible
03 Dec -1.5 16:54:08 10° NW 16:55:18 20° NW 16:55:18 20° NW visible
04 Dec -3.0 16:05:30 10° NW 16:08:34 33° NNE 16:09:01 32° NE visible
05 Dec -2.5 16:53:16 10° WNW 16:55:56 40° WSW 16:55:56 40° WSW visible
06 Dec -3.8 16:04:20 10° NW 16:07:40 86° SW 16:10:15 16° SE visible
